This is the latest recevied weather packets stored in our database for station/object AB4CZ-1. If no packets are shown the sender has not sent any weather packets the latest 10 day(s).
| Time | Temp. | Humidity | Pressure | Rain* | Wind** | Luminosity | Snow |
|---|---|---|---|---|---|---|---|
| 1777912305 | 24.44° C | 41% | 1018.2 hPa | 0 mm | - | - | - |
| 1777911692 | 23.89° C | 45% | 1018.3 hPa | 0 mm | - | - | - |
| 1777911392 | 23.33° C | 42% | 1018.4 hPa | 0 mm | - | - | - |
| 1777911212 | 23.89° C | 45% | 1018.5 hPa | 0 mm | - | - | - |
| 1777911104 | 23.89° C | 45% | 1018.5 hPa | 0 mm | - | - | - |
| 1777910498 | 23.89° C | 45% | 1018.7 hPa | 0 mm | - | - | - |
| 1777910465 | 23.89° C | 41% | 1018.7 hPa | 0 mm | - | - | - |
| 1777910212 | 23.89° C | 41% | 1018.7 hPa | 0 mm | - | - | - |
| 1777909892 | 23.89° C | 43% | 1018.8 hPa | 0 mm | - | - | - |
| 1777908695 | 24.44° C | 43% | 1019 hPa | 0 mm | - | - | - |
| 1777908092 | 23.89° C | 44% | 1019.1 hPa | 0 mm | - | - | - |
| 1777907792 | 23.33° C | 45% | 1019.1 hPa | 0 mm | - | - | - |
| 1777907196 | 22.78° C | 45% | 1019.2 hPa | 0 mm | - | - | - |
| 1777906892 | 22.22° C | 46% | 1019.1 hPa | 0 mm | - | - | - |
| 1777906686 | 21.67° C | 48% | 1019.2 hPa | 0 mm | - | - | - |
| 1777906592 | 21.67° C | 48% | 1019.2 hPa | 0 mm | - | - | - |
| 1777906292 | 21.67° C | 48% | 1019.2 hPa | 0 mm | - | - | - |
| 1777906027 | 22.22° C | 47% | 1019.2 hPa | 0 mm | - | - | - |
| 1777905992 | 22.22° C | 47% | 1019.2 hPa | 0 mm | - | - | - |
| 1777905692 | 22.22° C | 48% | 1019.3 hPa | 0 mm | - | - | - |
| 1777905092 | 21.11° C | 51% | 1019.3 hPa | 0 mm | - | - | - |
| 1777904492 | 20.56° C | 55% | 1019.4 hPa | 0 mm | - | - | - |
| 1777903892 | 20° C | 55% | 1019.4 hPa | 0 mm | - | - | - |
| 1777903594 | 20° C | 56% | 1019.4 hPa | 0 mm | - | - | - |
| 1777903292 | 20° C | 55% | 1019.4 hPa | 0 mm | - | - | - |
* Rain latest hour (hover to see other rain measurements)
** Current wind speed in m/s (hover to see current wind gust speed)